SL-8 DEB, 39839

Orbit data source: Space-Track

SL-8 DEB, 39839 is space debris in LEO originally from a launch on Tue, 12 Feb 1991 UTC launched from the Plesetsk Missile And Space Complex (PKMTR). Debris objects in space refer to the collection of defunct objects orbiting the Earth. Examples of debris include non-operational satellites, rocket bodies, and fragments generated from explosions, collisions, or faulty payload assembly.

Loading next visibility...
Identifier
39839, 1991-009DX
Orbit
LEO
Country
Flag of CISCIS
Related business
Manufacturer
Unknown
Mission
Spacecraft
Bus & Motor
Unknown
Mass
Unknown
Launch date (UTC)
1991-02-12 (35 years ago)
Launch vehicle
Unknown
Launch site
Plesetsk Missile And Space Complex (PKMTR)
Object type
Payload
Rocket body
Debris
Shape & HBR
Unknown shape, 0.1 m
Radar Cross Section
Medium (>0.1 m² and <1 m²)

Expand to show TLE details & history
Last TLE update: 3 days ago

TLE from 3 days ago
0 SL-8 DEB
1 39839U 91009DX  26170.59850986 -.00000005  00000-0  80684-4 0  9993
2 39839  73.8298 126.0428 0091589 328.7210  30.8409 12.49452755904774
Epoch: 2026-06-19T14:21Z
TLE epoch observation values (Epoch: 2026-06-19T14:21:51.251Z)
Latitude
-0.00005°
Longitude
2.75406°
Altitude
1,407.63 km
Speed
7.185 km/s
True Right ascension
08h 24m 10s
True Declination
0° 00' 00"
Sunlit
Object was in daylight at epoch
Visualization orbit readout
Latitude
Unknown
Longitude
Unknown
Altitude
Unknown
Speed
Unknown
Apparent Right ascension
Unknown
Apparent Declination
Unknown
Sunlit
N/A
Visualization observer readout
Local Sidereal Time
02:30:11
Azimuth
Unknown
Elevation
Unknown
Doppler factor
Unknown
Orbital elements
Apogee altitude
1,536.467 km
Perigee altitude
1,392.805 km
Semi-major axis
7,842.773 km
Eccentricity
0.00916
Inclination
73.8298°
RAAN
126.0428°
Arg. of periapsis
328.721°
True anomaly
31.38428°
Mean anomaly
30.8409°
Eccentric anomaly
31.11205°
Mean motion
3.12492 °/min
Orbital period
115.2 mins
BSTAR
0.000080684
Loading maneuver chart data...
Computing Atmospheric mass density...
Loading historical data...
Loading historical data...
Loading historical data...
Loading historical data...
Loading historical data...
Loading historical data...
Loading historical data...

Documentation

Showing up to 5 results
|